Location: Dorfgm�nd
(49.6961°N, 11.9542°E)
Time: 10:53:37
(UTC+00:00)

Daily predictions for brighter satellites

Satellite Brightness Start Highest point End
(mag) Time Altitude Azimuth Time Altitude Azimuth Time Altitude Azimuth
Okean O Rocket 1.6 15:39:42 10° SSE 15:44:01 80° ENE 15:48:24 10° NNW
Cosmos 2322 Rocket 3.6 15:39:59 10° WSW 15:44:57 31° NW 15:49:57 10° NNE
Radarsat Rocket 4.0 15:40:15 10° SSE 15:46:18 78° ENE 15:52:08 10° NNW
IRS-1C Rocket 4.4 15:41:44 10° SE 15:46:42 44° ENE 15:51:41 10° N
Cosmos 1484 Rocket 4.2 15:43:58 10° S 15:47:49 45° W 15:51:42 10° NNW
Cosmos 1315 Rocket 2.9 15:44:15 10° S 15:48:15 89° ESE 15:52:21 10° NNE
Cosmos 1707 Rocket 3.6 15:44:44 10° S 15:49:09 67° E 15:53:38 10° NNE
NOAA 6 4.1 15:44:05 10° SSE 15:49:13 90° WSW 15:54:23 10° NNW
Cosmos 1812 3.6 15:47:48 10° SSE 15:51:12 30° E 15:54:38 10° NNE
Cosmos 2219 Rocket 2.2 15:46:41 10° SSW 15:52:17 77° ESE 15:57:57 10° NNE
SL-16 R/B 3.9 15:49:25 10° W 15:54:04 25° NW 15:58:46 10° NNE
Cosmos 1340 3.8 15:50:32 10° NNW 15:54:11 48° W 15:57:50 10° S
Shenzhou-11 Module 4.2 15:52:40 10° SW 15:54:44 19° S 15:56:48 10° SE
STARLINK-46 2.4 15:52:34 10° WSW 15:55:13 82° SSE 15:57:53 10° ENE
SL-16 R/B 4.5 15:50:42 10° N 15:55:19 23° NW 15:59:54 10° WSW
Meteor 1-10 Rocket 4.3 15:51:06 10° S 15:56:33 61° E 16:02:06 10° NNE
Cosmos 2279 Rocket 4.1 15:51:12 10° N 15:57:30 89° W 16:03:46 10° S
Cosmos 1943 Rocket 3.6 15:55:33 10° N 15:59:21 18° NE 16:03:07 10° ENE
Cosmos 1500 3.3 15:56:37 10° N 16:00:20 53° ENE 16:04:00 10° SSE
Okean-O 3.4 16:00:15 10° SE 16:04:05 30° ENE 16:07:56 10° N
Exosat Rocket 3.9 15:59:37 10° S 16:04:36 47° ESE 16:09:27 10° NE
Cosmos 1908 Rocket 4.2 16:02:43 10° N 16:06:41 32° ENE 16:10:37 10° SE
Helios 1A Rocket 3.6 16:05:24 10° S 16:09:27 59° WSW 16:13:30 10° NNW
Meteor 1-11 Rocket 3.8 16:03:51 10° N 16:09:52 75° ENE 16:15:48 10° SSE
COSMOS 2455 4.4 16:06:09 10° W 16:11:13 27° NNW 16:16:18 10° NNE
Cosmos 1980 4.0 16:07:05 10° S 16:12:30 49° ESE 16:17:56 10° NE
ATLAS 2AS CENTAUR R/B 3.6 16:04:40 10° WSW 16:12:31 55° NW 16:20:19 10° NE
COSMO-SKYMED 1 4.2 16:10:40 12° ENE 16:12:44 15° E 16:15:17 10° SE
Meteor 1-27 Rocket 4.0 16:08:14 10° S 16:13:49 54° E 16:19:31 10° NNE
SMAP 3.0 16:13:40 10° SSE 16:18:16 67° ENE 16:22:55 10° N
Cosmos 2297 4.0 16:13:03 10° NNW 16:18:30 43° NE 16:23:54 10° ESE
Nadezhda 4 Rocket 4.1 16:13:32 10° S 16:19:43 59° E 16:25:54 10° NNE
SeaSat 1 4.3 16:19:18 11° NE 16:20:27 12° NNE 16:22:12 10° N
Okean 1-7 4.3 16:17:25 10° SE 16:20:43 21° E 16:23:26 13° NE
YAOGAN 1 3.9 16:18:28 10° ESE 16:21:29 19° ENE 16:24:32 10° NNE
Cosmos 1441 Rocket 4.0 16:18:34 10° N 16:21:55 28° ENE 16:25:15 10° SE
H-2A R/B 2.6 16:19:39 10° SSE 16:23:18 64° ENE 16:26:58 10° N
AQUARIUS 4.1 16:22:35 10° SSE 16:27:03 73° ENE 16:31:34 10° N
ALOS 4.3 16:24:31 10° SSW 16:28:41 32° W 16:32:53 10° NNW
Cosmos 1733 Rocket 3.5 16:25:10 10° NNW 16:29:32 67° W 16:33:54 10° S
RESURS DK-1 3.0 16:27:38 10° SW 16:31:41 55° NW 16:35:45 10° NNE
NOSS 5 (C) 4.4 16:31:13 10° NW 16:34:25 87° NE 16:38:29 10° SE
COSMOS 2428 3.2 16:28:58 10° SW 16:34:34 58° NW 16:40:14 10° NNE
Genesis I 3.1 16:34:33 10° NW 16:38:27 70° NE 16:42:18 10° SE
USA 215 3.3 16:33:27 15° ENE 16:39:01 89° NNW 16:45:35 10° WSW
ISS -0.8 16:38:24 10° W 16:40:48 18° SW 16:43:12 10° S
Cosmos 2026 Rocket 4.3 16:36:06 10° SSE 16:41:39 40° E 16:47:15 10° NNE
Cosmos 292 Rocket 3.7 16:37:06 10° NNW 16:42:00 84° ENE 16:46:52 10° SSE
Cosmos 1263 4.4 16:39:18 10° S 16:42:11 45° E 16:43:47 22° NNE
Feng Yun 1-1 Rocket 4.4 16:37:24 10° SSE 16:42:47 77° WSW 16:48:14 10° NNW
Cosmos 1666 2.5 16:40:52 10° N 16:44:37 70° E 16:48:19 10° SSE
STARLINK-29 4.2 16:41:43 10° SSW 16:44:54 32° SE 16:46:13 24° ESE
Cosmos 1536 3.0 16:42:39 10° NNW 16:46:41 74° W 16:50:40 10° S
Cosmos 921 Rocket 3.1 16:43:15 10° NNW 16:47:27 52° ENE 16:51:41 10° SE
NOSS 0 Rocket 4.0 16:46:27 10° SSW 16:52:40 81° WNW 16:58:26 13° NNE
STARLINK-60 3.5 16:49:27 10° SW 16:52:43 50° SSE 16:53:48 34° E
NOAA 12 4.1 16:51:04 10° SSE 16:56:23 89° W 17:01:42 10° NNW
Cosmos 2278 Rocket 3.7 16:52:14 10° NW 16:57:28 39° WSW 17:02:40 10° S
BREEZE-M R/B 2.7 16:53:17 10° W 16:58:56 89° S 17:00:15 35° E
Lacrosse 5 rocket 1.7 16:54:50 10° WSW 16:59:02 57° NNW 17:00:53 29° NE
COBE Rocket 3.8 16:54:34 10° N 16:59:14 80° WNW 17:03:56 10° SSW
Cosmos 2251 Rocket 3.9 16:54:15 10° SW 16:59:30 64° WNW 17:04:41 10° NNE
SKYMED 2 3.9 16:59:21 26° NE 17:01:16 42° E 17:05:23 10° S
Cosmos 1782 Rocket 3.4 16:57:17 10° N 17:01:38 62° ENE 17:05:55 10° SSE
Cosmos 2360 Rocket 4.2 16:58:18 10° W 17:02:23 20° NW 17:06:29 10° N
SL-4 R/B 2.0 17:02:14 10° W 17:06:00 65° N 17:07:13 41° ENE
Envisat 3.0 17:01:47 10° SSE 17:06:52 85° WSW 17:12:00 10° NNW
FengYun 1-2 T 4.1 17:01:31 10° SSE 17:06:58 74° ENE 17:12:30 10° NNW
Okean 2 Rocket 3.7 17:03:10 10° N 17:13:21 - SSE 17:06:56 34° ENE
Sich 1 Rocket 3.6 17:03:18 10° N 17:07:39 55° ENE 17:11:58 10° SSE
Aureole 1 Rocket 2.0 17:05:16 10° SSW 17:08:15 75° ESE 17:08:48 56° NE
Okean 1 3.6 17:05:55 10° SSE 17:09:40 42° E 17:09:47 42° E
Cosmos 2369 Rocket 2.7 17:04:47 10° NNW 17:09:57 35° NE 17:11:13 32° ENE
Cosmos 1140 Rocket 4.1 17:06:18 10° SSE 17:10:52 34° ESE 17:11:22 33° E
CZ-4 R/B 1.2 17:08:38 10° SSE 17:12:29 62° ENE 17:16:18 10° N
NOSS 3-1 (C) 4.3 17:05:55 10° NW 17:12:41 45° NNE 17:16:31 28° E
Cosmos 1627 Rocket 4.3 17:06:39 10° S 17:12:42 71° E 17:18:50 10° NNE
Cosmos 1743 2.6 17:09:24 10° N 17:13:15 64° ENE 17:17:06 10° SSE
Cosmos 2344 4.4 17:05:49 10° NW 17:14:24 51° NNE 17:21:27 24° E
Cosmos 1703 Rocket 3.5 17:10:17 10° S 17:14:46 83° E 17:18:22 16° NNE
USA 267 4.3 17:08:34 10° SSE 17:14:48 46° SW 17:21:04 10° WNW
SL-16 R/B 2.3 17:09:44 10° S 17:15:16 55° ESE 17:17:46 31° NE
STARLINK-67 3.8 17:13:26 10° WNW 17:15:28 34° NNW 17:15:28 34° NNW
Cosmos 407 Rocket 3.6 17:11:35 10° S 17:16:37 53° ESE 17:18:34 34° NE
Cosmos 2195 Rocket 4.4 17:12:29 10° S 17:18:43 84° E 17:25:04 10° N
Cosmos 1655 Rocket 4.4 17:14:17 10° SSE 17:20:04 40° E 17:22:33 28° NE
YAOGAN 6 2.5 17:16:51 10° SSE 17:20:24 84° WSW 17:24:02 10° NNW
USA 229 DEB 4.1 17:15:08 10° NW 17:22:01 48° NE 17:24:57 33° E
USA 229 4.1 17:15:15 10° NW 17:22:07 48° NE 17:25:01 33° E
Cosmos 2237 Rocket 2.7 17:19:31 10° SW 17:25:08 58° NW 17:29:20 18° NNE
BREEZE-M DEB (TANK) 3.7 17:22:33 10° W 17:26:21 27° SW 17:27:32 19° S
Cosmos 2333 Rocket 3.8 17:21:33 10° WSW 17:26:31 29° NW 17:31:15 11° NNE
NOSS 3-1 (A) 4.4 17:20:35 10° NW 17:27:13 42° NNE 17:29:37 34° ENE
Cosmos 1092 Rocket 4.2 17:22:13 10° SSW 17:28:30 72° W 17:34:47 10° N
Meteor 1-12 Rocket 4.4 17:30:08 10° N 17:35:51 49° ENE 17:36:52 44° ESE
Meteor 1-19 Rocket 4.2 17:30:51 10° S 17:36:12 54° E 17:36:58 49° ENE
Cosmos 2219 Rocket 4.0 17:32:16 10° W 17:36:53 25° NW 17:41:08 12° N
Cosmos 1867 3.5 17:32:34 10° NW 17:38:04 86° SW 17:41:04 28° SE
Cosmos 1975 4.2 17:34:30 10° N 17:44:00 - SSE 17:36:24 27° N
Okean-O 4.2 17:36:24 10° SSW 17:40:29 36° W 17:44:35 10° NNW
USA 116 4.3 17:38:51 40° NNE 17:40:44 69° ESE 17:45:49 10° S
BREEZE-M DEB (TANK) 3.0 17:37:45 10° W 17:41:21 38° SSW 17:41:21 38° SSW
Cosmos 1943 Rocket 2.1 17:38:35 10° NNW 17:44:14 66° ENE 17:45:19 54° ESE
FALCON 9 DEB 4.1 17:43:56 10° WSW 17:46:30 46° WSW 17:46:30 46° WSW
COSMO-SKYMED 1 2.8 17:47:53 39° N 17:49:21 67° WNW 17:53:39 10° SSW
Ariane Rocket 4.0 17:52:12 31° N 17:52:12 31° N 17:54:57 10° N
CSL-04 Rocket 3.8 17:49:36 10° S 17:54:52 71° WSW 18:00:11 10° NNW
Meteor 2-13 Rocket 4.3 17:48:58 10° S 17:54:57 66° E 17:56:08 54° NE
SeaSat 1 3.9 17:59:06 25° N 17:59:06 25° N 18:01:27 10° NNW
YAOGAN 1 3.1 17:52:56 10° S 17:57:12 59° W 18:01:30 10° NNW
Okean 1-7 4.1 17:53:51 10° SSW 17:58:00 43° WNW 18:00:20 23° NNW
S3M 3.8 17:52:55 10° N 17:59:11 87° E 18:05:20 10° S
Uosat 12 SS-18 rocket 4.3 17:55:08 10° NW 17:59:27 67° NW 17:59:27 67° NW
IRS-1A Rocket 4.3 18:01:35 63° NE 18:01:35 63° NE 18:07:04 10° N
ATLAS 2AS CENTAUR R/B 4.2 17:58:19 10° WNW 18:05:16 31° N 18:07:59 25° NNE
Cosmos 1190 Rocket 4.2 18:05:54 10° SSW 18:11:04 67° WNW 18:11:38 62° NNW
Cosmos 1553 Rocket 4.4 18:05:17 10° NNW 18:11:33 62° W 18:17:51 10° S
Cosmos 676 Rocket 4.4 18:07:57 10° SSW 18:11:48 51° SSW 18:11:48 51° SSW
USA 215 3.6 18:20:48 48° NNE 18:21:47 52° NNW 18:28:04 10° W
Lacrosse 5 4.3 18:31:25 10° SSW 18:31:51 12° SSW 18:31:51 12° SSW
Lacrosse 5 rocket 3.9 18:35:11 10° WNW 18:36:32 17° NW 18:36:32 17° NW
CZ-4 R/B 4.4 18:45:58 10° WSW 18:47:55 13° W 18:49:51 10° WNW
Cosmos 2369 Rocket 3.2 18:48:46 10° NW 18:53:04 43° WNW 18:53:04 43° WNW
SL-16 R/B 3.6 18:54:35 10° WSW 18:59:41 33° NW 18:59:41 33° NW
NOSS 3-1 (C) 4.1 18:56:44 10° NW 19:03:58 71° WSW 19:03:58 71° WSW
Cosmos 2237 Rocket 4.5 19:06:56 10° WNW 19:10:29 17° NNW 19:11:10 16° NNW
USA 229 DEB 4.3 19:06:11 10° NW 19:12:26 57° W 19:12:26 57° W
USA 229 4.3 19:06:18 10° NW 19:12:30 57° W 19:12:30 57° W
NOSS 3-1 (A) 4.4 19:11:27 10° NW 19:17:06 58° NW 19:17:06 58° NW
Cosmos 1943 Rocket 4.2 19:23:08 10° NW 19:26:54 23° W 19:26:54 23° W
Cosmos 2344 4.5 19:20:13 10° NW 19:29:49 71° SW 19:31:31 64° S
